User: anonymous   Login
Location: Unspecified
(0.0000°N, 0.0000°E)
Time: 20:18:07
(UTC+00:00)
Language:

STARLINK-35458 - Orbit

View from above orbital plane
View from above orbital plane
View from above satellite
View from above satellite

Ground track
Ground track

The orbit is defined by the following mean orbital elements,

1 65925U          26145.44370062 +.00000000 +00000-0 +33834-3 0 00008
2 65925  53.1577 168.8658 0001151  86.3078 273.8054 15.30202657    09
Epoch (UTC): 25 May 2026 10:38:55
Eccentricity: 0.0001151
inclination: 53.1577°
perigee height: 474 km
apogee height: 476 km
right ascension of ascending node: 168.8658°
argument of perigee: 86.3078°
revolutions per day: 15.30202657
mean anomaly at epoch: 273.8054°

The dashed part of the orbit path shows where the satellite is in the earth's shadow,  

DLR